Flag for Romania Weather past 2 weeks in Timișoara, Romania

Now
70 °F

Scattered clouds.


Feels Like: 70 °F
Forecast: 64 / 75 °F
Wind: 8 mph from East

Location: Timisoara Airport

Current Time: Jul 22, 2014 at 12:29:32 PM

Latest Report: Jul 22, 2014 at 12:00 PM


Visibility: N/A

Pressure: 29.80 "Hg

Humidity: 94%

Dew point: 68 °F

Location of TimișoaraLocation

Historic Weather in Timișoara — Graph

°F

Timișoara temperature yesterday

Maximum temperature yesterday: 91 °F (at 3:30 PM)
Minimum temperature yesterday: 63 °F (at 4:00 AM)
Average temperature yesterday: 78 °F

Past Weeks' High & Low Weather Summary

 TemperatureHumidityPressure
High91 °F (Jul 7, 3:30 PM)100% (Jul 8, 2:30 AM)30.07 "Hg (Jul 8, 2:30 AM)
Low55 °F (Jul 13, 3:00 AM)29% (Jul 20, 5:30 PM)29.59 "Hg (Jul 12, 3:00 AM)
Average72 °F78%29.87 "Hg
* Reported Jul 7 11:00 AM — Jul 22 11:30 AM, Timișoara, Weather by CustomWeather, © 2014

Note: Actual official high and low records may vary slightly from our data, if they occured in-between our weather recording intervals... More about our weather records

Advertising

Timișoara weather history for previous 24 hours

 ConditionsComfort  
Time TempWeatherWind HumidityBarometerVisibility
11:30 AM
Jul 22
68 °FScattered clouds.7 mph94%29.80 "HgN/A
11:00 AM68 °FScattered clouds.8 mph94%29.80 "HgN/A
10:30 AM68 °FPartly sunny.3 mph94%29.80 "HgN/A
10:00 AM66 °FLight rain. Low clouds.5 mph100%29.80 "Hg5 mi
9:30 AM66 °FLight rain. Fog.9 mph100%29.80 "Hg2 mi
9:00 AM66 °FRain showers. Fog.8 mph100%29.80 "Hg1 mi
8:30 AM66 °FThunderstorms. Fog.9 mph100%29.80 "Hg2 mi
8:00 AM66 °FThunderstorms. Fog.7 mph100%29.80 "Hg2 mi
7:30 AM68 °FRain showers. Fog.3 mph94%29.80 "Hg2 mi
7:00 AM68 °FSprinkles. Fog.6 mph94%29.80 "Hg3 mi
6:30 AM68 °FRain showers. Fog.5 mph100%29.80 "Hg2 mi
6:00 AM68 °FSprinkles. Passing clouds.5 mph100%29.77 "Hg4 mi
5:30 AM68 °FPassing clouds.2 mph100%29.77 "HgN/A
5:00 AM68 °FSprinkles. Passing clouds.6 mph100%29.77 "HgN/A
4:30 AM70 °FPassing clouds.2 mph94%29.80 "HgN/A
4:00 AM72 °FPassing clouds.6 mph94%29.83 "HgN/A
3:30 AM70 °FPassing clouds.No wind100%29.83 "HgN/A
3:00 AM70 °FLight rain. Passing clouds.2 mph100%29.83 "HgN/A
2:30 AM70 °FSprinkles. Passing clouds.2 mph100%29.83 "HgN/A
2:00 AM72 °FLight rain. Passing clouds.2 mph94%29.83 "HgN/A
1:30 AM72 °FSprinkles. Passing clouds.7 mph94%29.83 "HgN/A
1:00 AM73 °FThunderstorms. Passing clouds.10 mph89%29.83 "HgN/A
12:30 AM73 °FSprinkles. Passing clouds.6 mph89%29.80 "HgN/A
11:30 PM
Jul 21
75 °FPassing clouds.2 mph74%29.80 "HgN/A
11:00 PM75 °FClear.3 mph74%29.80 "Hg10 mi
10:30 PM75 °FClear.5 mph74%29.80 "Hg10 mi
10:00 PM77 °FSunny.8 mph69%29.80 "Hg10 mi
9:30 PM79 °FSunny.8 mph61%29.80 "Hg10 mi
9:00 PM81 °FPassing clouds.8 mph58%29.80 "HgN/A
8:30 PM82 °FPassing clouds.10 mph58%29.80 "HgN/A
8:00 PM84 °FPassing clouds.13 mph55%29.77 "HgN/A
7:30 PM86 °FPassing clouds.12 mph52%29.77 "HgN/A
7:00 PM90 °FPassing clouds.7 mph46%29.77 "HgN/A
6:30 PM90 °FPassing clouds.8 mph49%29.77 "HgN/A
6:00 PM91 °FPassing clouds.7 mph41%29.77 "HgN/A
5:30 PM91 °FPassing clouds.7 mph41%29.77 "HgN/A
5:00 PM91 °FPassing clouds.8 mph44%29.77 "HgN/A
4:30 PM91 °FPassing clouds.7 mph44%29.80 "HgN/A
4:00 PM90 °FPassing clouds.8 mph36%29.80 "HgN/A
3:30 PM91 °FPassing clouds.7 mph34%29.80 "HgN/A
3:00 PM90 °FPassing clouds.7 mph41%29.80 "HgN/A
2:30 PM90 °FPassing clouds.9 mph41%29.80 "HgN/A
2:00 PM90 °FPassing clouds.8 mph41%29.83 "HgN/A
1:30 PM88 °FPassing clouds.9 mph49%29.83 "HgN/A
1:00 PM88 °FPassing clouds.8 mph46%29.83 "HgN/A
12:30 PM88 °FPassing clouds.9 mph46%29.83 "HgN/A
12:00 PM84 °FPassing clouds.8 mph58%29.83 "HgN/A
Weather by CustomWeather, © 2014

See weather overviewHow to use our weather pages